User: anonymous   Login
Location: Unspecified
(35.6961°N, 0.0000°E)
Time: 03:55:50
(UTC+00:00)
Language:

Courier 1B Rocket - Orbit

View from above orbital plane
View from above orbital plane
View from above satellite
View from above satellite

Ground track
Ground track

The orbit data is extracted from the following two-line orbital elements,

1    59U 60013B   20295.27082226 +.00000114 +00000-0 +30901-4 0  9994
2    59 028.2498 291.9096 0189035 262.1824 095.7223 13.52978868963627
Epoch (UTC): 21 October 2020 06:29:59
Eccentricity: 0.0189035
inclination: 28.2498°
perigee height: 920 km
apogee height: 1202 km
right ascension of ascending node: 291.9096°
argument of perigee: 262.1824°
revolutions per day: 13.52978868
mean anomaly at epoch: 95.7223°
orbit number at epoch: 96362

The dashed part of the orbit path shows where the satellite is in the earth's shadow,  

DLR